TimeEST,TemperatureF,Dew PointF,Humidity,Sea Level PressureIn,VisibilityMPH,Wind Direction,Wind SpeedMPH,Gust SpeedMPH,PrecipitationIn,Events,Conditions,WindDirDegrees,DateUTC
12:15 AM,41.0,41.0,100,29.83,3.0,North,3.5,-,N/A,,Overcast,360,2013-02-24 05:15:00
12:33 AM,41.0,39.2,93,29.84,3.0,Calm,Calm,-,N/A,,Overcast,0,2013-02-24 05:33:00
12:54 AM,41.0,39.2,93,29.84,5.0,North,4.6,-,N/A,,Overcast,360,2013-02-24 05:54:00
1:15 AM,41.0,39.2,93,29.85,4.0,WNW,3.5,-,N/A,,Overcast,300,2013-02-24 06:15:00
1:33 AM,41.0,39.2,93,29.86,4.0,WNW,4.6,-,N/A,,Overcast,300,2013-02-24 06:33:00
1:54 AM,41.0,37.4,87,29.85,4.0,NW,3.5,-,N/A,,Overcast,320,2013-02-24 06:54:00
2:15 AM,41.0,37.4,87,29.84,3.0,NW,4.6,-,N/A,,Overcast,320,2013-02-24 07:15:00
2:36 AM,41.0,37.4,87,29.84,4.0,North,5.8,-,N/A,,Overcast,350,2013-02-24 07:36:00
2:54 AM,41.0,37.4,87,29.83,5.0,North,6.9,-,N/A,,Overcast,360,2013-02-24 07:54:00
3:15 AM,39.2,37.4,93,29.82,5.0,North,5.8,-,N/A,,Overcast,10,2013-02-24 08:15:00
3:36 AM,39.2,37.4,93,29.82,5.0,North,4.6,-,N/A,,Overcast,10,2013-02-24 08:36:00
3:54 AM,39.2,37.4,93,29.82,5.0,Calm,Calm,-,N/A,,Overcast,0,2013-02-24 08:54:00
4:15 AM,39.2,37.4,93,29.81,4.0,Calm,Calm,-,N/A,,Overcast,0,2013-02-24 09:15:00
4:54 AM,39.2,37.4,93,29.83,4.0,NNW,3.5,-,N/A,,Overcast,330,2013-02-24 09:54:00
5:15 AM,39.2,37.4,93,29.84,4.0,NNW,4.6,-,N/A,,Overcast,330,2013-02-24 10:15:00
5:36 AM,39.2,37.4,93,29.83,5.0,NW,3.5,-,N/A,,Overcast,320,2013-02-24 10:36:00
5:54 AM,39.2,37.4,93,29.84,5.0,WNW,3.5,-,N/A,,Overcast,300,2013-02-24 10:54:00
6:15 AM,39.2,37.4,93,29.85,4.0,WNW,3.5,-,N/A,,Overcast,300,2013-02-24 11:15:00
6:36 AM,39.2,37.4,93,29.86,5.0,WNW,4.6,-,N/A,,Overcast,300,2013-02-24 11:36:00
6:54 AM,39.2,37.4,93,29.87,5.0,NW,3.5,-,N/A,,Overcast,320,2013-02-24 11:54:00
7:15 AM,39.2,37.4,93,29.88,5.0,WNW,3.5,-,N/A,,Overcast,300,2013-02-24 12:15:00
7:36 AM,39.2,37.4,93,29.88,5.0,WNW,3.5,-,N/A,,Overcast,300,2013-02-24 12:36:00
7:54 AM,39.2,37.4,93,29.87,7.0,Calm,Calm,-,N/A,,Scattered Clouds,0,2013-02-24 12:54:00
8:15 AM,41.0,37.4,87,29.88,7.0,Calm,Calm,-,N/A,,Clear,0,2013-02-24 13:15:00
8:36 AM,42.8,37.4,81,29.88,10.0,Calm,Calm,-,N/A,,Clear,0,2013-02-24 13:36:00
8:54 AM,44.6,37.4,76,29.89,10.0,NW,5.8,-,N/A,,Clear,320,2013-02-24 13:54:00
9:15 AM,44.6,37.4,76,29.88,10.0,NW,8.1,-,N/A,,Clear,320,2013-02-24 14:15:00
9:36 AM,46.4,37.4,71,29.89,10.0,NW,8.1,-,N/A,,Clear,310,2013-02-24 14:36:00
9:54 AM,46.4,35.6,66,29.89,10.0,West,15.0,19.6,N/A,,Mostly Cloudy,280,2013-02-24 14:54:00
10:15 AM,46.4,33.8,62,29.90,10.0,WNW,12.7,18.4,N/A,,Mostly Cloudy,290,2013-02-24 15:15:00
10:36 AM,48.2,32.0,54,29.90,10.0,NW,10.4,20.7,N/A,,Overcast,310,2013-02-24 15:36:00
10:57 AM,50.0,32.0,50,29.91,10.0,WNW,19.6,26.5,N/A,,Scattered Clouds,300,2013-02-24 15:57:00
11:15 AM,48.2,32.0,54,29.91,10.0,WNW,16.1,27.6,N/A,,Clear,290,2013-02-24 16:15:00
11:36 AM,48.2,30.2,50,29.92,10.0,WNW,16.1,24.2,N/A,,Clear,300,2013-02-24 16:36:00
11:57 AM,50.0,28.4,43,29.91,10.0,West,17.3,24.2,N/A,,Scattered Clouds,280,2013-02-24 16:57:00
12:15 PM,50.0,28.4,43,29.91,10.0,WNW,15.0,26.5,N/A,,Scattered Clouds,300,2013-02-24 17:15:00
12:36 PM,50.0,28.4,43,29.90,10.0,West,18.4,27.6,N/A,,Clear,280,2013-02-24 17:36:00
12:57 PM,50.0,26.6,40,29.89,10.0,West,23.0,27.6,N/A,,Clear,270,2013-02-24 17:57:00
1:15 PM,50.0,26.6,40,29.88,10.0,WNW,16.1,26.5,N/A,,Clear,290,2013-02-24 18:15:00
1:36 PM,50.0,28.4,43,29.88,10.0,NW,13.8,24.2,N/A,,Clear,320,2013-02-24 18:36:00
1:57 PM,51.8,26.6,38,29.88,10.0,WNW,16.1,25.3,N/A,,Clear,300,2013-02-24 18:57:00
2:15 PM,51.8,26.6,38,29.88,10.0,NW,18.4,24.2,N/A,,Clear,310,2013-02-24 19:15:00
2:36 PM,50.0,23.0,35,29.88,10.0,NW,16.1,28.8,N/A,,Clear,310,2013-02-24 19:36:00
2:57 PM,51.8,24.8,35,29.89,10.0,WNW,16.1,23.0,N/A,,Clear,290,2013-02-24 19:57:00
3:15 PM,46.4,24.8,43,29.90,10.0,NW,12.7,21.9,N/A,,Scattered Clouds,320,2013-02-24 20:15:00
3:36 PM,50.0,24.8,37,29.91,10.0,NNW,10.4,19.6,N/A,,Mostly Cloudy,330,2013-02-24 20:36:00
3:57 PM,50.0,23.0,35,29.91,10.0,NW,12.7,25.3,N/A,,Scattered Clouds,320,2013-02-24 20:57:00
4:15 PM,46.4,24.8,43,29.92,10.0,NW,16.1,24.2,N/A,,Scattered Clouds,320,2013-02-24 21:15:00
4:36 PM,44.6,24.8,46,29.94,10.0,NNW,16.1,24.2,N/A,,Scattered Clouds,330,2013-02-24 21:36:00
4:57 PM,42.8,24.8,49,29.95,10.0,NNW,11.5,24.2,N/A,,Scattered Clouds,330,2013-02-24 21:57:00
5:15 PM,41.0,24.8,53,29.97,10.0,NNW,15.0,21.9,N/A,,Clear,330,2013-02-24 22:15:00
5:36 PM,39.2,24.8,56,29.98,10.0,NW,10.4,21.9,N/A,,Clear,320,2013-02-24 22:36:00
5:57 PM,37.4,23.0,56,29.99,10.0,NW,15.0,27.6,N/A,,Clear,310,2013-02-24 22:57:00
6:15 PM,37.4,23.0,56,30.01,10.0,NW,15.0,23.0,N/A,,Clear,310,2013-02-24 23:15:00
6:36 PM,35.6,23.0,60,30.03,10.0,NNW,9.2,23.0,N/A,,Clear,330,2013-02-24 23:36:00
6:57 PM,35.6,23.0,60,30.05,10.0,NW,12.7,20.7,N/A,,Clear,310,2013-02-24 23:57:00
7:15 PM,35.6,21.2,56,30.06,10.0,NW,12.7,24.2,N/A,,Clear,320,2013-02-25 00:15:00
7:36 PM,33.8,21.2,60,30.07,10.0,NW,10.4,20.7,N/A,,Clear,310,2013-02-25 00:36:00
7:57 PM,33.8,21.2,60,30.08,10.0,NW,9.2,19.6,N/A,,Clear,320,2013-02-25 00:57:00
8:18 PM,33.8,21.2,60,30.10,10.0,NW,13.8,19.6,N/A,,Clear,320,2013-02-25 01:18:00
8:36 PM,33.8,21.2,60,30.10,10.0,NW,12.7,23.0,N/A,,Clear,310,2013-02-25 01:36:00
8:57 PM,33.8,21.2,60,30.10,10.0,NW,6.9,19.6,N/A,,Clear,320,2013-02-25 01:57:00
9:18 PM,32.0,21.2,64,30.11,10.0,NW,9.2,17.3,N/A,,Clear,310,2013-02-25 02:18:00
9:36 PM,32.0,19.4,60,30.12,10.0,WNW,5.8,-,N/A,,Clear,300,2013-02-25 02:36:00
9:57 PM,32.0,19.4,60,30.12,10.0,WNW,6.9,-,N/A,,Clear,300,2013-02-25 02:57:00
10:18 PM,32.0,19.4,60,30.13,10.0,WNW,8.1,-,N/A,,Clear,300,2013-02-25 03:18:00
10:36 PM,32.0,19.4,60,30.13,10.0,WNW,8.1,-,N/A,,Clear,290,2013-02-25 03:36:00
10:57 PM,32.0,19.4,60,30.13,10.0,WNW,5.8,-,N/A,,Clear,300,2013-02-25 03:57:00
11:18 PM,32.0,19.4,60,30.13,10.0,West,6.9,-,N/A,,Clear,280,2013-02-25 04:18:00
11:36 PM,32.0,19.4,60,30.13,10.0,WNW,6.9,-,N/A,,Clear,290,2013-02-25 04:36:00
11:57 PM,32.0,21.2,64,30.13,10.0,WNW,6.9,-,N/A,,Clear,290,2013-02-25 04:57:00